Location: Dover
(39.1580°N, 75.5250°W)
Time: 22:42:50
(UTC-04:00)

Daily predictions for brighter satellites

Satellite Brightness Start Highest point End
(mag) Time Altitude Azimuth Time Altitude Azimuth Time Altitude Azimuth
DELTA 2 R/B (1) 3.7 20:51:43 10° W 20:57:17 85° N 21:02:52 10° E
S3M 4.2 20:53:34 10° N 20:59:32 52° E 21:05:29 10° SSE
H-2A R/B 2.7 20:55:26 10° SE 20:59:41 43° ENE 21:03:59 10° N
CZ-4 DEB 3.1 20:59:01 10° S 21:02:12 69° WSW 21:05:24 10° NNW
Cosmos 1328 Rocket 4.0 21:00:40 10° N 21:05:00 48° E 21:09:16 10° SSE
ERS-1 Rocket 3.0 21:01:09 10° SSE 21:06:09 71° ENE 21:11:11 10° N
Cosmos 371 Rocket 3.4 21:01:21 10° NNW 21:06:09 62° ENE 21:10:54 10° SSE
DELTA 2 R/B(2) 4.1 21:06:18 10° SW 21:07:40 23° SSE 21:09:19 10° E
Cosmos 2228 Rocket 3.1 21:05:14 10° N 21:09:42 72° E 21:14:12 10° SSE
SPOT 5 3.6 21:07:13 10° SE 21:11:15 33° ENE 21:15:29 10° N
Cosmos 1777 Rocket 4.4 21:06:47 10° S 21:11:44 43° ESE 21:16:41 10° NNE
ALOS 3.4 21:08:36 10° S 21:13:01 43° W 21:17:30 10° NNW
YAOGAN 6 4.5 21:11:56 10° ESE 21:14:23 17° ENE 21:16:48 10° NNE
Cosmos 1743 Rocket 3.6 21:12:31 10° S 21:16:59 79° E 21:21:28 10° N
Cosmos 405 4.4 21:15:57 10° NNE 21:18:58 24° ENE 21:21:39 12° SE
Cosmos 1500 Rocket 3.6 21:19:29 10° S 21:23:46 62° E 21:28:08 10° NNE
USA 186 4.0 21:22:19 10° SW 21:23:50 15° W 21:25:23 10° NW
H-2A R/B 4.2 21:21:52 10° E 21:23:57 12° ENE 21:26:04 10° NE
Cosmos 2219 4.3 21:21:09 10° SSE 21:25:36 24° E 21:30:03 10° NE
deb Chang Zheng 4 3.6 21:22:17 10° NNE 21:26:39 90° SSE 21:30:59 10° SSW
BREEZE M DEB (TANK) 3.3 21:28:35 10° WSW 21:30:08 19° SSW 21:32:05 11° SSE
Cosmos 2322 4.5 21:29:09 10° N 21:34:31 39° ENE 21:38:57 14° SE
Cosmos 1441 Rocket 3.2 21:31:00 10° S 21:34:47 86° W 21:38:34 10° N
SPOT 1/Viking Rocket 4.4 21:31:27 13° SE 21:35:27 34° ENE 21:40:04 10° N
ATLAS CENTAUR R/B 2.6 21:32:25 10° NW 21:36:37 39° WSW 21:40:29 10° S
CZ-2C R/B 2.0 21:36:50 10° SSW 21:38:20 23° W 21:39:49 10° NW
Delta 2 Rocket 3.8 21:35:56 10° SW 21:39:00 28° SSE 21:40:48 18° ESE
PSLV R/B 3.3 21:37:46 17° SSE 21:40:00 55° ENE 21:43:01 10° N
Cosmos 1538 Rocket 4.2 21:34:42 10° NNW 21:40:02 75° WSW 21:45:23 10° S
Cosmos 2322 Rocket 2.5 21:35:10 10° NNW 21:40:44 65° WSW 21:46:16 10° S
Cosmos 1680 Rocket 4.3 21:35:56 10° N 21:40:49 38° ENE 21:44:32 16° SE
Cosmos 923 Rocket 4.3 21:39:03 10° N 21:44:09 53° ENE 21:48:00 17° SE
Cosmos 1726 4.2 21:44:22 10° NE 21:46:32 15° ENE 21:47:47 13° E
USA 245 3.6 21:48:58 22° ESE 21:49:49 26° ENE 21:51:59 10° NNE
SL-16 R/B 2.7 21:44:26 10° NNW 21:50:01 59° WSW 21:55:22 11° S
Cosmos 1980 Rocket 4.4 21:46:35 10° NW 21:50:35 20° W 21:54:36 10° SW
Cosmos 304 Rocket 4.2 21:46:39 10° N 21:51:19 47° ENE 21:54:23 20° SE
Cosmos 2360 Rocket 2.5 21:46:09 10° NNW 21:51:42 55° ENE 21:55:40 19° SE
Cosmos 1515 Rocket 4.0 21:48:03 10° NNW 21:52:28 63° W 21:56:48 10° S
Cosmos 1939 Rocket 3.7 21:48:55 10° S 21:52:45 47° W 21:56:33 10° NNW
Cosmos 2315 Rocket 4.3 21:47:01 10° N 21:53:01 49° ENE 21:57:24 18° SSE
Cosmos 1908 3.2 21:50:41 10° N 21:54:35 88° ENE 21:57:31 17° S
CZ-4B R/B 3.7 21:49:28 10° NNE 21:54:40 56° E 21:59:35 11° S
AVUM R/B 2.3 21:52:34 10° SSW 21:54:49 82° WNW 21:57:15 10° NNE
Cosmos 2266 Rocket 4.0 21:51:02 10° S 21:57:22 88° E 22:03:38 10° N
USA 229 DEB 4.0 21:57:03 10° SW 22:03:57 73° NW 22:10:58 10° NNE
USA 229 4.0 21:57:09 10° SW 22:04:03 74° NW 22:11:05 10° NNE
Cosmos 1633 Rocket 4.1 22:05:13 23° ESE 22:06:32 27° E 22:10:15 10° NNE
Cosmos 773 Rocket 4.1 22:01:41 10° NNW 22:06:52 74° WSW 22:10:40 19° S
Sich 1 4.0 22:05:33 24° SE 22:07:02 29° E 22:10:53 10° NNE
Aureole 3 4.5 22:03:12 10° S 22:10:18 78° E 22:16:04 10° N
MetOp-B 4.2 22:06:25 17° S 22:10:40 79° WSW 22:16:03 10° NNW
Cosmos 2151 3.0 22:10:13 13° S 22:13:54 79° W 22:18:07 10° N
Cosmos 1674 3.6 22:10:28 10° SSW 22:14:09 49° W 22:17:55 10° N
Terra 3.1 22:12:30 20° ESE 22:14:30 27° ENE 22:18:29 10° N
Cosmos 2227 Rocket 3.9 22:15:59 15° E 22:15:59 15° E 22:19:03 10° ENE
Cosmos 1437 Rocket 4.0 22:14:08 10° NNW 22:17:39 36° W 22:20:37 13° SSW
SL-23 DEB 4.3 22:13:12 10° NW 22:17:56 53° NNE 22:19:33 28° E
Cosmos 1805 Rocket 3.5 22:17:07 25° S 22:19:39 67° E 22:24:05 10° NNE
Cosmos 2333 Rocket 4.0 22:17:46 10° N 22:21:55 20° NE 22:25:11 13° E
Cosmos 1151 Rocket 3.8 22:18:17 10° NNW 22:22:27 49° W 22:25:31 17° SSW
Meteor 1-4 Rocket 3.9 22:20:28 10° NNE 22:23:39 25° ENE 22:24:10 24° E
NOSS 3-1 (A) 3.7 22:20:06 20° S 22:23:41 42° ESE 22:29:35 10° NE
Cosmos 1300 2.9 22:20:16 10° N 22:24:03 55° E 22:25:08 39° SE
Cosmos 1626 4.4 22:25:01 12° ENE 22:25:01 12° ENE 22:25:57 10° ENE
CZ-4 R/B 3.8 22:20:14 10° NNE 22:25:13 79° ESE 22:28:34 20° S
CZ-4C R/B 3.2 22:31:52 47° ESE 22:32:30 57° ENE 22:35:55 10° N
SWAS 4.4 22:29:30 10° NNW 22:33:51 81° ENE 22:35:17 42° SSE
COSMOS 2428 2.9 22:28:24 10° NNW 22:34:01 59° ENE 22:36:34 32° SE
Cosmos 1745 Rocket 4.4 22:32:33 29° SE 22:35:11 44° E 22:41:01 10° NNE
Cosmos 1707 Rocket 3.4 22:34:45 10° N 22:39:07 88° E 22:40:39 40° S
Cosmos 1666 Rocket 3.4 22:39:51 35° S 22:41:40 87° E 22:46:06 10° N
Cosmos 2297 Rocket 3.8 22:43:59 18° E 22:43:59 18° E 22:47:11 10° ENE
DELTA 2 R/B (1) 3.5 22:38:13 10° W 22:43:45 68° SSW 22:45:57 36° SE
Cosmos 2298 Rocket 3.9 22:41:52 26° S 22:44:54 76° ESE 22:50:14 10° NNE
Cosmos 2058 3.4 22:42:56 23° SSW 22:45:15 55° W 22:49:19 10° N
Cosmos 2112 Rocket 4.2 22:40:14 10° NNW 22:45:24 64° WSW 22:47:48 32° S
Meteor 2-11 Rocket 4.4 22:39:24 10° N 22:45:35 90° E 22:48:44 31° S
ATLAS 2AS CENTAUR R/B 3.7 22:45:16 27° ESE 22:46:24 28° ESE 22:52:48 10° NE
Cosmos 1455 3.8 22:43:57 10° NNE 22:46:54 22° ENE 22:46:54 22° ENE
YAOGAN 6 4.3 22:46:03 19° SW 22:47:45 27° W 22:50:54 10° NW
Cosmos 2219 Rocket 2.8 22:49:24 10° N 22:54:45 43° ENE 22:56:41 32° ESE
Cosmos 1470 Rocket 3.9 22:54:47 44° ESE 22:55:00 45° E 22:59:08 10° NNE
Cosmos 2237 4.2 22:49:57 10° NNW 22:55:43 86° WSW 22:57:51 41° SSE
Cosmos 1933 Rocket 3.9 22:56:12 45° ESE 22:56:31 46° E 23:00:48 10° NNE
Cosmos 1937 Rocket 3.5 22:56:44 44° SSE 22:58:07 60° ESE 23:03:16 10° NNE
ARGOS 3.8 22:55:49 25° SSW 22:58:39 48° W 23:03:52 10° NNW
Cosmos 220 Rocket 4.0 23:02:18 57° ESE 23:02:29 58° ESE 23:06:50 10° NNE
H-2A R/B 2.1 23:00:41 43° SSE 23:02:32 88° WSW 23:07:58 10° NNW
BREEZE-M DEB (TANK) 4.1 23:04:43 10° NNW 23:06:35 23° NNE 23:07:06 22° NE
SL-14 R/B 4.2 23:05:20 32° SW 23:06:42 45° W 23:10:32 10° N
Cosmos 1703 3.1 23:07:24 75° SSW 23:07:42 85° W 23:11:38 10° N
IGS 5A 3.3 23:07:26 69° SSE 23:07:56 88° ENE 23:12:07 10° NNW
Cosmos 1980 4.5 23:02:55 10° N 23:08:15 40° ENE 23:10:00 32° E
Cosmos 2219 4.2 23:03:52 10° SW 23:09:23 47° WNW 23:14:56 10° NNE
ATLAS 3B R/B 4.3 23:04:26 10° NNW 23:10:14 26° NE 23:15:00 13° E
NOSS 3-1 (C) 3.7 23:06:07 10° SW 23:11:55 68° NW 23:18:24 10° NNE
Cosmos 990 Rocket 4.0 23:13:26 54° SE 23:14:03 59° ESE 23:19:06 10° NNE
Cosmos 1271 Rocket 2.7 23:10:58 10° NNW 23:14:47 73° W 23:14:50 73° WSW
NOSS 0 Rocket 4.1 23:09:19 10° NNW 23:15:25 59° ENE 23:17:23 41° ESE
Cosmos 2242 Rocket 3.8 23:11:16 10° NNW 23:15:42 63° W 23:16:33 51° SW
Cosmos 2333 4.2 23:11:06 10° NNW 23:16:50 79° WSW 23:18:26 49° S
Cosmos 2237 Rocket 2.7 23:16:15 10° NNW 23:21:47 48° ENE 23:23:15 39° ESE
Cosmos 1726 3.5 23:18:37 10° NNW 23:21:59 32° W 23:22:28 30° WSW
SAR-Lupe-2 4.0 23:22:48 56° WNW 23:22:48 56° WNW 23:26:04 10° NNW
Cosmos 2082 3.8 23:21:48 52° SE 23:22:36 57° ESE 23:28:12 10° NNE
Iridium 2 4.5 23:28:43 43° W 23:28:58 44° W 23:32:41 10° N
Cosmos 2360 Rocket 4.1 23:31:20 10° NW 23:35:12 19° W 23:37:27 15° SW
Cosmos 1862 Rocket 3.4 23:33:00 10° N 23:37:19 82° W 23:37:19 82° W
Cosmos 1125 Rocket 4.0 23:42:38 44° E 23:42:38 44° E 23:47:20 10° NNE
CZ-4B R/B 4.0 23:43:58 14° NE 23:43:58 14° NE 23:45:17 10° NNE
Spot 4 4.4 23:44:36 43° WSW 23:45:13 45° W 23:49:53 10° NNW
Terra 3.1 23:51:23 28° WSW 23:52:07 29° W 23:56:17 10° NW
